sat.trackr.live / text

‹ back to catalog

STARLINK-2534

NORAD 48311 · 2021-036AM

PAYLOAD ACTIVE UNKNOWN

§ Identity

Operator
Country
US
Launch date
2021-04-29
Launch site
AFETR
Launch vehicle
Mass (kg)
RCS (m²)

Purposes: comms

External: N2YO · Heavens-Above · Gunter

§ Orbital elements

Epoch: 2026-05-25T02:17:36.538656Z

Period
94.01 min
Inclination
53.1595°
Eccentricity
0.0001097
Mean motion
15.31691589 rev/d
Perigee alt
470.0 km
Apogee alt
471.5 km
Semi-major
6,848.9 km
B*
1.5604e-5
RAAN
93.2996°
Arg perigee
106.0315°
Mean anomaly
254.0807°
Rev number
27,992

§ Raw data

STARLINK-25341 48311U 21036AM  26145.09556179  .00000119  00000+0  15604-4 0  99992 48311  53.1595  93.2996 0001097 106.0315 254.0807 15.31691589279921

JSON: /api/v1/satellites/48311 · /tle

For live sub-satellite position, see the globe view (requires WebGL).

§ Visibility from observer

Set your observer location to see the next 7 days of passes ≥ 10°. The values pass through the URL so the page stays shareable.

No JS? Fill the form by hand. The geolocation button needs JavaScript.